Weather History for KU16 - March, 2014

Change the Weather History Date:

Sunday, March 9, 2014

  Actual Average Record
Temperature  
Mean Temperature 42 °F -  
Max Temperature 53 °F - - ()
Min Temperature 32 °F - - ()
Degree Days  
Heating Degree Days 22    
Moisture  
Dew Point 33 °F    
Average Humidity 68    
Maximum Humidity 89    
Minimum Humidity 52    
Precipitation  
Precipitation 0.00 in - - ()
Sea Level Pressure  
Sea Level Pressure 29.10 in    
Wind  
Wind Speed 4 mph (SSW)    
Max Wind Speed 9 mph    
Max Gust Speed -    
Visibility 10 miles    
Events      
T = Trace of Precipitation, MM = Missing Value Source: NWS Daily Summary

Daily Weather History Graph

Daily Weather History Graph

Search for Another Location

Airport or City:

Trip Planner

Search our weather history database for the weather conditions in past years. The results will help you decide how hot, cold, wet, or windy it might be!

Date:

Astronomy

Mar. 09, 2014 Rise Set
Actual Time 7:53 AM MDT 7:32 PM MDT
Civil Twilight 7:26 AM MDT 7:59 PM MDT
Nautical Twilight 6:54 AM MDT 8:31 PM MDT
Astronomical Twilight 6:22 AM MDT 9:03 PM MDT
Moon 1:26 PM MDT (3/9) 3:24 AM MDT (3/9)
Length of Visible Light 12h 33m
Length of Day
11h 38m
First Quarter, 61% of the Moon is Illuminated
Mar 9
First Quarter
Mar 16
Full
Mar 23
Last Quarter
Mar 30
New
Apr 7
First Quarter

Hourly Weather History & Observations

Time (MDT) Temp. Windchill Dew Point Humidity Pressure Visibility Wind Dir Wind Speed Gust Speed Precip Events Conditions
12:58 AM 41.0 °F 36.4 °F 30.9 °F 67% 29.17 in 10.0 mi SSE 6.9 mph - N/A   Clear
1:58 AM 36.0 °F - 28.9 °F 76% 29.17 in 10.0 mi Calm Calm - N/A   Clear
3:58 AM 33.1 °F - 28.0 °F 82% 29.17 in 10.0 mi Calm Calm - N/A   Clear
4:58 AM 35.1 °F 30.1 °F 28.9 °F 78% 29.15 in 10.0 mi SSE 5.8 mph - N/A   Clear
5:58 AM 35.1 °F 31.0 °F 28.0 °F 76% 29.14 in 10.0 mi SSE 4.6 mph - N/A   Clear
6:58 AM 32.0 °F - 27.0 °F 82% 29.14 in 10.0 mi Calm Calm - N/A   Clear
7:58 AM 32.0 °F - 28.0 °F 85% 29.14 in 10.0 mi Calm Calm - N/A   Clear
8:58 AM 33.1 °F - 30.0 °F 89% 29.15 in 10.0 mi Calm Calm - N/A   Clear
9:58 AM 43.0 °F - 32.0 °F 65% 29.15 in 10.0 mi Calm Calm - N/A   Clear
10:58 AM 46.9 °F - 30.9 °F 54% 29.16 in 10.0 mi Variable 4.6 mph - N/A   Clear
11:58 AM 46.9 °F - 34.0 °F 61% 29.15 in 10.0 mi West 9.2 mph - N/A   Clear
12:58 PM 50.0 °F - 35.1 °F 57% 29.14 in 10.0 mi SW 6.9 mph - N/A   Clear
1:58 PM 52.0 °F - 37.0 °F 57% 29.12 in 10.0 mi WSW 6.9 mph - N/A   Clear
2:58 PM 53.1 °F - 36.0 °F 52% 29.10 in 10.0 mi Variable 4.6 mph - N/A   Clear
3:58 PM 52.0 °F - 36.0 °F 54% 29.08 in 10.0 mi Calm Calm - N/A   Overcast
4:58 PM 52.0 °F - 37.9 °F 59% 29.06 in 10.0 mi North 5.8 mph - N/A   Overcast
5:58 PM 52.0 °F - 39.0 °F 61% 29.06 in 10.0 mi North 8.1 mph - N/A   Overcast
6:58 PM 50.0 °F - 39.0 °F 66% 29.05 in 10.0 mi NNE 4.6 mph - N/A   Overcast
7:58 PM 46.9 °F - 39.0 °F 74% 29.04 in 10.0 mi Calm Calm - N/A   Mostly Cloudy
8:58 PM 46.0 °F 44.8 °F 37.9 °F 73% 29.03 in 10.0 mi East 3.5 mph - N/A   Scattered Clouds
9:58 PM 45.0 °F - 34.0 °F 65% 29.03 in 10.0 mi Calm Calm - N/A   Clear
10:58 PM 46.9 °F - 33.1 °F 59% 29.01 in 10.0 mi SSE 3.5 mph - N/A   Clear
11:58 PM 45.0 °F 42.6 °F 35.1 °F 68% 28.99 in 10.0 mi West 4.6 mph - N/A   Mostly Cloudy
12:58 AM 44.1 °F 42.5 °F 36.0 °F 73% 28.98 in 10.0 mi North 3.5 mph - N/A   Overcast